This is the latest recevied weather packets stored in our database for station/object N9GKE-1. If no packets are shown the sender has not sent any weather packets the latest 10 day(s).
| Time | Temp. | Humidity | Pressure | Rain* | Wind** | Luminosity | Snow |
|---|---|---|---|---|---|---|---|
| 1777999295 | 10.56° C | 82% | 1008.5 hPa | 0.76 mm | - | - | - |
| 1777999149 | 10.56° C | 81% | 1008.5 hPa | 0.76 mm | - | - | - |
| 1777998695 | 10.56° C | 80% | 1008.4 hPa | 0.51 mm | - | - | - |
| 1777998550 | 10.56° C | 80% | 1008.4 hPa | 0.51 mm | - | - | - |
| 1777998096 | 10.56° C | 78% | 1008.6 hPa | 0.25 mm | - | - | - |
| 1777997950 | 10.56° C | 75% | 1008.6 hPa | 0.25 mm | - | - | - |
| 1777997494 | 11.11° C | 73% | 1008.6 hPa | 0 mm | - | - | - |
| 1777997350 | 11.11° C | 71% | 1008.7 hPa | 0 mm | - | - | - |
| 1777996894 | 11.11° C | 69% | 1008.6 hPa | 0 mm | - | - | - |
| 1777996751 | 11.11° C | 68% | 1008.6 hPa | 0 mm | - | - | - |
| 1777996295 | 11.67° C | 66% | 1008.7 hPa | 12.7 mm | - | - | - |
| 1777996150 | 11.67° C | 66% | 1008.6 hPa | 12.7 mm | - | - | - |
| 1777995695 | 11.67° C | 65% | 1008.7 hPa | 12.7 mm | - | - | - |
| 1777995550 | 11.67° C | 66% | 1008.7 hPa | 12.7 mm | - | - | - |
| 1777995095 | 11.67° C | 67% | 1008.5 hPa | 12.7 mm | - | - | - |
| 1777994949 | 11.67° C | 67% | 1008.5 hPa | 12.7 mm | - | - | - |
| 1777994494 | 11.67° C | 67% | 1008.7 hPa | 12.7 mm | - | - | - |
| 1777994351 | 11.67° C | 65% | 1008.7 hPa | 12.7 mm | - | - | - |
| 1777993895 | 11.67° C | 67% | 1009 hPa | 12.7 mm | - | - | - |
| 1777993750 | 11.67° C | 66% | 1009 hPa | 12.7 mm | - | - | - |
| 1777993295 | 11.67° C | 70% | 1008.7 hPa | 12.7 mm | - | - | - |
| 1777993152 | 11.67° C | 69% | 1008.6 hPa | 12.7 mm | - | - | - |
| 1777992694 | 11.67° C | 69% | 1008.5 hPa | 0 mm | - | - | - |
| 1777992550 | 11.67° C | 70% | 1008.6 hPa | 0 mm | - | - | - |
| 1777992093 | 12.22° C | 70% | 1008.6 hPa | 0 mm | - | - | - |
* Rain latest hour (hover to see other rain measurements)
** Current wind speed in m/s (hover to see current wind gust speed)